ATLAS AGENA B DEB, 630

Orbit data source: Space-Track

ATLAS AGENA B DEB, 630 is space debris in LEO originally from a launch on Fri, 19 Jul 1963 UTC launched from the Air Force Western Test Range (AFWTR). Debris objects in space refer to the collection of defunct objects orbiting the Earth. Examples of debris include non-operational satellites, rocket bodies, and fragments generated from explosions, collisions, or faulty payload assembly.

Loading next visibility...
Identifier
630, 1963-030C
Orbit
LEO
Country
Flag of USUS
Related business
Manufacturer
Unknown
Mission
Spacecraft
Bus & Motor
Unknown
Mass
~10 kg wet, ~10 kg dry
Launch date (UTC)
1963-07-19 (63 years ago)
Launch vehicle
Unknown
Launch site
Air Force Western Test Range (AFWTR)
Object type
Payload
Rocket body
Debris
Shape & HBR
PAN, 0.8 m
Radar Cross Section
Medium (>0.1 m² and <1 m²)

Expand to show TLE details & history
Last TLE update: 15 hours ago

TLE from 15 hours ago
0 ATLAS AGENA B DEB
1 00630U 63030C   26237.28099379 -.00000003  00000-0 -26776-2 0  9993
2 00630  88.4637 199.3926 0063198 165.6582 194.6079  8.59864641980774
Epoch: 2026-08-25T06:44Z
TLE epoch observation values (Epoch: 2026-08-25T06:44:37.863Z)
Latitude
-0.00006°
Longitude
124.68424°
Altitude
3,749.885 km
Speed
6.255 km/s
True Right ascension
13h 17m 34s
True Declination
0° 00' 00"
Sunlit
Object was in daylight at epoch
Visualization orbit readout
Latitude
Unknown
Longitude
Unknown
Altitude
Unknown
Speed
Unknown
Apparent Right ascension
Unknown
Apparent Declination
Unknown
Sunlit
N/A
Visualization observer readout
Local Sidereal Time
12:45:16
Azimuth
Unknown
Elevation
Unknown
Doppler factor
Unknown
Orbital elements
Apogee altitude
3,747.535 km
Perigee altitude
3,620.354 km
Semi-major axis
10,062.082 km
Eccentricity
0.00632
Inclination
88.4637°
RAAN
199.3926°
Arg. of periapsis
165.6582°
True anomaly
194.42664°
Mean anomaly
194.6079°
Eccentric anomaly
194.51713°
Mean motion
2.15036 °/min
Orbital period
167.41 mins
BSTAR
-0.0026776
Loading maneuver chart data...
Computing Atmospheric mass density...
Loading historical data...
Loading historical data...
Loading historical data...
Loading historical data...
Loading historical data...
Loading historical data...
Loading historical data...

Documentation

Showing up to 5 results
|